Location: Allen Lane School
(37.8198°N, 89.7382°W)
Time: 22:02:15
(UTC+00:00)

N. Korean satellite - Pass Details

Date: 05 December 2022
Orbit: 407 x 442 km, 97.3° (Epoch: 04 February)

Event Time Altitude Azimuth Distance (km) Brightness Sun altitude
Rises 10:38:33 0° 25° (NNE) 2,503 10.4 -27.1°
Reaches altitude 10° 10:40:52 10° 38° (NE) 1,615 9.5 -26.7°
Maximum altitude 10:43:48 25° 96° (E) 953 8.7 -26.1°
Drops below altitude 10° 10:46:40 10° 154° (SSE) 1,579 9.6 -25.6°
Sets 10:48:54 0° 168° (SSE) 2,433 10.4 -25.1°
